#timestamp,LO_Frequency,Hit,StdDev 
1692234015.7,286047002.2,N
1692234035.5,286047002.1,N
1692234055.4,286047001.9,N
1692234075.2,286047002.4,N
1692234095.0,286046999.8,N
1692234095.9,286046999.8,N
1692234115.8,286047000.1,N
1692234135.6,286047002.5,N
1692234155.5,286047002.6,N
1692234175.3,286047002.5,N
1692234195.1,286047001.9,N
1692234215.9,286047002.6,N
1692234235.7,286046999.7,N
1692234255.5,286047002.8,N
1692234275.4,286047002.3,N
1692234295.2,286046999.8,N
1692234315.1,286047002.4,N
1692234316.0,286047002.4,N
1692234335.8,286047000.4,N
1692234355.6,286047002.2,N
1692234375.5,286047002.7,N
1692234395.3,286046999.7,N
1692234415.2,286047002.2,N
1692234435.9,286047002.5,N
1692234455.7,286047002.3,N
1692234475.6,286047000.0,N
1692234495.4,286047001.0,N
1692234515.2,286047000.6,N
1692234535.1,286047000.0,N
1692234536.0,286047000.0,N
1692234555.8,286047001.2,N
1692234575.7,286047000.9,N
1692234595.5,286047000.8,N
1692234615.3,286047000.0,N
1692234635.2,286047002.4,N
1692234655.0,286047002.7,N
1692234655.9,286047002.7,N
1692234675.8,286047002.8,N
1692234695.6,286047002.2,N
1692234715.4,286047002.4,N
1692234735.3,286047001.5,N
1692234755.1,286047002.5,N
1692234775.8,286047001.9,N
1692234795.7,286047002.1,N
1692234815.5,286047002.7,N
1692234835.4,286047002.2,N
1692234855.2,286047002.0,N
1692234875.0,286047002.0,N
1692234875.9,286047002.0,N
1692234895.8,286046999.8,N
1692234915.6,286047002.7,N
1692234935.4,286047002.4,N
1692234955.3,286047000.3,N
1692234975.1,286047000.4,N
1692234995.9,286047000.7,N
1692235015.7,286047000.5,N
1692235035.5,286046999.9,N
1692235055.4,286047002.3,N
1692235075.2,286047000.3,N
1692235095.0,286046999.9,N
1692235095.9,286046999.9,N
1692235115.8,286047002.8,N
1692235135.6,286047002.6,N
1692235155.5,286047002.6,N
1692235175.3,286047002.7,N
1692235195.1,286047002.2,N
1692235215.9,286047002.6,N
1692235235.7,286046999.7,N
1692235255.5,286046999.8,N
1692235275.4,286046999.7,N
1692235295.2,286047000.0,N
1692235315.1,286047000.4,N
1692235316.0,286047000.4,N
1692235335.8,286046999.9,N
1692235355.6,286047000.0,N
1692235375.5,286047002.4,N
1692235395.3,286047000.1,N
1692235415.1,286047001.5,N
1692235435.9,286047002.2,N
1692235455.7,286047000.1,N
1692235475.6,286047000.3,N
1692235495.4,286046999.9,N
1692235515.2,286047000.9,N
1692235535.1,286046998.4,N
1692235536.0,286046998.4,N
1692235555.8,286046998.6,N
1692235575.7,286046998.8,N
1692235595.5,286046998.5,N
1692235615.3,286046998.1,N
1692235635.2,286047000.7,N
1692235655.0,286047001.0,N
1692235655.9,286047001.0,N
1692235675.7,286047000.7,N
1692235695.6,286047001.2,N
1692235715.4,286047000.2,N
1692235735.3,286047000.0,N
1692235755.1,286047000.4,N
1692235775.8,286047001.0,N
1692235795.7,286047001.1,N
1692235815.5,286046998.4,N
1692235835.4,286046998.7,N
1692235855.2,286046998.6,N
1692235875.0,286046998.4,N
1692235875.9,286046998.4,N
1692235895.8,286046998.3,N
1692235915.6,286046998.7,N
1692235935.4,286047001.0,N
1692235955.3,286046998.6,N
1692235975.1,286046998.8,N
1692235995.9,286046998.5,N
1692236015.7,286046999.0,N
1692236035.5,286046999.4,N
1692236055.4,286046998.3,N
1692236075.2,286046998.9,N
1692236095.0,286046996.7,Y
1692236095.9,286046996.7,P
1692236115.8,286046999.1,N
1692236135.6,286046998.7,N
1692236155.5,286046998.8,N
1692236175.3,286046998.7,N
1692236195.1,286046999.5,N
1692236215.9,286046999.4,N
1692236235.7,286046998.7,N
1692236255.5,286046998.8,N
1692236275.4,286047001.1,N
1692236295.2,286046999.3,N
1692236315.1,286046996.5,Y
1692236316.0,286046996.5,P
1692236335.8,286046999.4,N
1692236385.7,286046999.2,E
1692236395.6,286046998.7,N
1692236415.4,286047000.8,P
1692236435.3,286047001.2,N
1692236455.1,286047000.9,N
1692236456.0,286047000.9,N
1692236475.8,286047001.1,N
1692236495.7,286047000.8,N
1692236515.5,286047000.8,N
1692236535.3,286047000.8,N
1692236555.2,286047001.2,N
1692236575.0,286047000.7,N
1692236575.9,286047000.7,N
1692236595.8,286046998.4,N
1692236615.6,286046998.7,N
1692236635.4,286046998.8,N
1692236655.3,286046998.3,N
1692236675.1,286046999.3,N
1692236695.8,286046998.5,N
1692236715.7,286046998.3,N
1692236735.5,286047000.7,N
1692236755.4,286047001.1,N
1692236775.2,286047000.9,N
1692236795.0,286046998.1,N
1692236795.9,286046998.1,N
1692236815.8,286047001.1,N
1692236835.6,286046998.1,N
1692236855.4,286046998.3,N
1692236875.3,286047000.8,N
1692236895.1,286046999.0,N
1692236915.9,286046996.5,N
1692236935.7,286046997.8,N
1692236955.5,286046997.8,N
1692236975.4,286046996.6,N
1692236995.2,286046999.4,N
1692237015.1,286046997.0,N
1692237016.0,286046997.0,N
1692237035.8,286046996.7,N
1692237055.6,286046997.1,N
1692237075.5,286046997.8,N
1692237095.3,286046998.0,N
1692237115.1,286046997.8,N
1692237135.9,286046994.9,Y
1692237155.7,286046996.7,P
1692237175.6,286046997.1,P
1692237195.4,286046996.8,P
1692237215.2,286046997.6,Y
1692237235.1,286046999.9,P
1692237236.0,286046999.9,N
1692237255.8,286047002.8,N
1692237275.7,286046999.8,N
1692237295.5,286047002.4,N
1692237315.3,286047002.7,N
1692237335.2,286047001.0,N
1692237355.0,286047000.3,N
1692237355.9,286047000.3,N
1692237375.8,286047000.6,N
1692237395.6,286047001.0,N
1692237415.4,286046999.9,N
1692237435.3,286047000.2,N
1692237455.1,286047002.6,N
1692237475.8,286047000.2,N
1692237495.7,286047002.8,N
1692237515.5,286047000.5,N
1692237535.4,286047002.7,N
1692237555.2,286047002.3,N
1692237575.0,286047002.0,N
1692237575.9,286047002.0,N
1692237595.8,286046999.7,N
